EW3808 Weather Reports


Display with metric or nautical units.
time (UTC)temp
F
wind
direction
speed
MPH
gust
MPH
rain 1hr
in
rain 24hr
in
rain mn
in
humidity
%
barometer
mb
20260902170210 61 172 3.0 14.0 0.00 0.02 0.00 55 1021.2
20260902165212 63 165 3.0 14.0 0.00 0.02 0.00 54 1021.3
20260902164146 62 129 3.0 10.0 0.00 0.02 0.00 58 1021.0
20260902163154 60 193 2.0 13.0 0.00 0.02 0.00 62 1021.2
20260902162218 58 183 2.0 13.0 0.00 0.02 0.00 62 1021.3
20260902161155 58 112 4.0 15.0 0.00 0.02 0.00 59 1021.5
20260902160200 59 115 5.0 15.0 0.00 0.02 0.00 61 1021.5
20260902155157 58 72 2.0 11.0 0.00 0.02 0.00 64 1021.6
20260902154128 58 163 2.0 10.0 0.00 0.02 0.00 60 1021.6
20260902153149 60 150 2.0 13.0 0.00 0.02 0.00 59 1021.3
20260902152204 60 201 3.0 13.0 0.00 0.02 0.00 59 1021.4
20260902151134 59 130 1.0 13.0 0.00 0.02 0.00 60 1021.2
20260902150115 58 148 3.0 16.0 0.00 0.02 0.00 62 1021.2
20260902145052 57 139 4.0 16.0 0.00 0.02 0.00 64 1021.3
20260902144045 55 127 3.0 13.0 0.00 0.02 0.00 70 1021.2
20260902143044 54 136 3.0 13.0 0.00 0.02 0.00 71 1021.1
20260902142054 53 129 5.0 12.0 0.00 0.02 0.00 69 1021.3
20260902141104 53 158 3.0 14.0 0.00 0.02 0.00 71 1021.2
20260902140032 52 140 5.0 14.0 0.00 0.02 0.00 74 1021.2
20260902135029 52 157 5.0 12.0 0.00 0.02 0.00 74 1021.1
20260902134023 52 128 5.0 14.0 0.00 0.02 0.00 75 1021.0
20260902133017 52 135 6.0 14.0 0.00 0.02 0.00 75 1020.9
20260902132030 52 141 6.0 13.0 0.00 0.02 0.00 75 1021.0
20260902131045 52 126 6.0 15.0 0.00 0.02 0.00 75 1020.9
20260902130049 51 123 5.0 15.0 0.00 0.02 0.00 76 1021.0
20260902125039 51 163 3.0 12.0 0.00 0.02 0.00 77 1020.9
20260902124102 51 164 3.0 13.0 0.00 0.02 0.00 76 1020.7
20260902123115 51 156 5.0 13.0 0.00 0.02 0.00 76 1020.6
20260902120959 52 159 3.0 10.0 0.00 0.02 0.00 75 1020.7
20260902115946 52 165 4.0 9.0 0.00 0.02 0.00 75 1020.8
20260902115006 52 176 1.0 7.0 0.00 0.02 0.00 75 1020.8
20260902114017 52 161 2.0 0.0 0.00 0.02 0.00 74 1020.8
20260902113000 52 136 4.0 10.0 0.00 0.02 0.00 75 1021.0
20260902112018 51 156 3.0 11.0 0.00 0.02 0.00 76 1021.1
20260902110957 51 144 3.0 11.0 0.00 0.02 0.00 77 1021.0
20260902110015 51 162 0.0 0.0 0.00 0.02 0.00 76 1021.1
20260902105001 51 148 3.0 8.0 0.00 0.02 0.00 75 1021.2
20260902104018 51 148 3.0 8.0 0.00 0.02 0.00 75 1021.1
20260902103022 52 165 3.0 9.0 0.00 0.02 0.00 75 1021.2
20260902102040 52 167 3.0 9.0 0.00 0.02 0.00 75 1021.2
20260902101101 52 167 3.0 8.0 0.00 0.02 0.00 75 1021.4
20260902094856 52 188 3.0 8.0 0.00 0.02 0.00 73 1021.5
20260902093845 52 144 0.0 3.0 0.00 0.02 0.00 72 1021.7
20260902092818 52 157 3.0 9.0 0.00 0.02 0.00 71 1021.7
20260902091834 52 125 2.0 9.0 0.00 0.02 0.00 70 1021.9
20260902090834 52 151 1.0 7.0 0.00 0.02 0.00 71 1021.9
20260902085857 51 152 0.0 4.0 0.00 0.02 0.00 72 1022.0
20260902083728 51 169 3.0 9.0 0.00 0.02 0.00 73 1022.1
20260902082705 51 152 3.0 7.0 0.00 0.02 0.00 74 1022.2
20260902073048 51 140 3.0 8.0 0.00 0.02 0.00 77 1022.2
20260902070953 51 133 5.0 10.0 0.00 0.02 0.00 77 1022.2
20260902064813 51 181 4.0 12.0 0.00 0.02 0.00 78 1022.0
20260902063809 51 158 5.0 12.0 0.00 0.03 0.00 79 1021.9
20260902062802 51 141 2.0 9.0 0.00 0.03 0.00 79 1022.0
20260902061826 52 155 3.0 8.0 0.00 0.03 0.00 78 1022.2
20260902060756 52 171 4.0 9.0 0.00 0.03 0.00 78 1022.2
20260902055734 52 138 4.0 14.0 0.00 0.03 0.03 78 1022.2
20260902053636 53 167 3.0 12.0 0.00 0.03 0.03 78 1022.3
20260902052643 52 179 3.0 12.0 0.00 0.03 0.03 77 1022.2
20260902051612 52 174 3.0 10.0 0.00 0.03 0.03 77 1022.1
20260902050619 53 190 4.0 10.0 0.00 0.03 0.03 77 1022.2
20260902044540 53 170 4.0 11.0 0.00 0.03 0.03 78 1022.6
20260902042431 53 157 4.0 10.0 0.00 0.03 0.03 77 1022.6
20260902041426 53 169 3.0 10.0 0.00 0.03 0.03 76 1022.6
20260902040355 54 171 4.0 14.0 0.00 0.03 0.03 75 1022.6
20260902035415 54 152 4.0 14.0 0.00 0.03 0.03 74 1022.6
20260902034358 54 153 5.0 11.0 0.00 0.03 0.03 74 1022.6
20260902032204 54 195 4.0 10.0 0.00 0.03 0.03 75 1022.5
20260902025055 55 157 4.0 11.0 0.00 0.03 0.03 74 1022.3
20260902024050 55 168 3.0 11.0 0.00 0.03 0.03 74 1022.2
20260902023026 55 166 2.0 8.0 0.00 0.03 0.03 73 1022.2
20260902020912 56 163 4.0 10.0 0.00 0.03 0.03 72 1022.3
20260902014725 57 150 5.0 10.0 0.00 0.03 0.03 70 1022.3
20260902013747 58 171 2.0 8.0 0.00 0.03 0.03 69 1022.3
20260902012806 58 159 0.0 10.0 0.00 0.03 0.03 67 1022.1
20260902010649 59 132 2.0 14.0 0.00 0.03 0.03 63 1022.3
20260902004452 60 147 4.0 12.0 0.00 0.03 0.03 61 1022.6
20260902003452 61 133 4.0 12.0 0.00 0.03 0.03 60 1022.6
20260902002439 61 188 4.0 12.0 0.00 0.03 0.03 59 1022.5
20260902001424 61 193 3.0 10.0 0.00 0.03 0.03 56 1022.8
20260902000402 62 138 4.0 13.0 0.00 0.03 0.03 50 1022.7
20260901234242 63 125 5.0 14.0 0.00 0.03 0.03 49 1022.7
20260901233224 62 200 4.0 13.0 0.00 0.03 0.03 55 1022.8
20260901232244 62 134 5.0 18.0 0.00 0.03 0.03 58 1022.8
20260901231228 61 79 5.0 18.0 0.00 0.03 0.03 61 1023.0
20260901230158 61 144 1.0 11.0 0.00 0.06 0.03 62 1023.3
20260901225134 61 126 2.0 13.0 0.00 0.15 0.03 62 1023.2
20260901224152 61 149 3.0 13.0 0.00 0.18 0.03 61 1023.3
20260901223125 61 96 3.0 11.0 0.00 0.19 0.03 64 1023.4
20260901222100 61 118 3.0 11.0 0.00 0.21 0.03 63 1023.6
20260901221102 60 155 1.0 6.0 0.04 0.21 0.03 74 1023.6
20260901220059 61 258 1.0 6.0 0.16 0.21 0.03 65 1023.9
20260901215058 63 181 2.0 8.0 0.00 0.19 0.01 53 1023.8
20260901214041 64 138 5.0 15.0 0.00 0.19 0.01 51 1023.9
20260901211846 64 194 2.0 16.0 0.00 0.19 0.01 49 1024.3
20260901210858 65 176 2.0 10.0 0.00 0.19 0.01 47 1024.4
20260901205853 66 157 2.0 7.0 0.00 0.19 0.01 49 1024.4
20260901204820 65 50 2.0 15.0 0.00 0.19 0.01 50 1024.6
20260901203802 64 266 0.0 9.0 0.00 0.19 0.01 49 1024.7
20260901202738 63 205 1.0 0.0 0.00 0.19 0.01 53 1024.9
20260901200619 64 179 1.0 11.0 0.00 0.19 0.01 53 1024.9
20260901195611 65 171 2.0 12.0 0.00 0.19 0.01 52 1024.8
20260901194557 65 227 3.0 12.0 0.00 0.19 0.01 51 1024.9
20260901193542 64 267 1.0 9.0 0.00 0.19 0.01 53 1025.2
20260901191455 63 174 1.0 12.0 0.00 0.19 0.01 56 1025.4
20260901190501 63 355 0.0 9.0 0.00 0.19 0.01 58 1025.4
20260901185445 61 217 1.0 12.0 0.00 0.19 0.01 60 1025.6
20260901183346 60 288 0.0 4.0 0.00 0.19 0.01 62 1025.6
20260901182402 60 273 0.0 10.0 0.00 0.19 0.01 63 1025.7
20260901181407 60 324 0.0 0.0 0.00 0.19 0.01 63 1025.9
20260901180356 60 102 0.0 7.0 0.00 0.19 0.01 67 1025.9
20260901174204 61 188 1.0 11.0 0.00 0.19 0.01 65 1025.9
20260901173149 60 171 1.0 12.0 0.00 0.19 0.01 67 1025.9
20260901172149 61 167 3.0 13.0 0.00 0.19 0.01 67 1025.9